• In Netherlands
  • List of Countries
  • For 7 days
  • Water Temperature
  • Satellite Maps
  • Weather Map
  • Weather Widgets
  • user-avatar
    Login

    Hourly Weather Ischgl

    Today, 26 March, Sunday

    Time Temperature Precipitation Wind Pressure Humidity
    00:00 -5°C° 0 mm 2 mps 571 mmHg 93%
    01:00 -6°C° 0 mm 2 mps 571 mmHg 93%
    02:00 -6°C° 0 mm 2 mps 570 mmHg 93%
    03:00 -6°C° 0 mm 2 mps 570 mmHg 93%
    04:00 -6°C° 0 mm 1 mps 570 mmHg 93%
    05:00 -6°C° 0 mm 1 mps 570 mmHg 93%
    06:00 -6°C° 0 mm 1 mps 569 mmHg 92%
    07:00 -7°C° 0 mm 1 mps 569 mmHg 92%
    08:00 -3°C° 0 mm 1 mps 571 mmHg 90%
    09:00 -1°C° 0 mm 1 mps 572 mmHg 89%
    10:00 +1°C° 0 mm 1 mps 573 mmHg 88%
    11:00 -1°C° 0.1 mm 2 mps 573 mmHg 88%
    12:00 +1°C° 0.1 mm 2 mps 573 mmHg 88%
    13:00 +1°C° 0.1 mm 2 mps 573 mmHg 89%
    14:00 +1°C° 0.1 mm 2 mps 573 mmHg 89%
    15:00 -1°C° 0.1 mm 2 mps 574 mmHg 89%
    16:00 -1°C° 0.1 mm 2 mps 574 mmHg 90%
    17:00 -2°C° 0 mm 2 mps 573 mmHg 92%
    18:00 -1°C° 0 mm 1 mps 573 mmHg 94%
    19:00 -3°C° 0 mm 1 mps 573 mmHg 97%
    20:00 -4°C° 0 mm 1 mps 573 mmHg 97%
    21:00 -6°C° 0 mm 1 mps 572 mmHg 97%
    22:00 -7°C° 0 mm 1 mps 572 mmHg 97%
    23:00 -7°C° 0 mm 1 mps 573 mmHg 95%

    Tomorrow, 27 March, Monday

    Time Temperature Precipitation Wind Pressure Humidity
    00:00 -7°C° 0 mm 1 mps 573 mmHg 94%
    01:00 -7°C° 0 mm 2 mps 574 mmHg 93%
    02:00 -7°C° 0 mm 2 mps 574 mmHg 92%
    03:00 -7°C° 0 mm 2 mps 574 mmHg 92%
    04:00 -7°C° 0 mm 2 mps 574 mmHg 92%
    05:00 -6°C° 0 mm 2 mps 574 mmHg 91%
    06:00 -6°C° 0 mm 2 mps 574 mmHg 90%
    07:00 -6°C° 0 mm 2 mps 574 mmHg 89%
    08:00 -2°C° 0 mm 1 mps 575 mmHg 84%
    09:00 +1°C° 0 mm 1 mps 576 mmHg 79%
    10:00 +3°C° 0 mm 1 mps 577 mmHg 74%
    11:00 +4°C° 0 mm 1 mps 577 mmHg 72%
    12:00 +4°C° 0 mm 1 mps 578 mmHg 70%
    13:00 +5°C° 0 mm 1 mps 578 mmHg 67%
    14:00 +5°C° 0 mm 1 mps 578 mmHg 70%
    15:00 +5°C° 0 mm 1 mps 577 mmHg 73%
    16:00 +4°C° 0 mm 1 mps 577 mmHg 75%
    17:00 +1°C° 0 mm 1 mps 576 mmHg 83%
    18:00 -2°C° 0 mm 1 mps 574 mmHg 90%
    19:00 -6°C° 0 mm 0 mps 573 mmHg 97%
    20:00 -5°C° 0 mm 0 mps 573 mmHg 97%
    21:00 -5°C° 0 mm 0 mps 574 mmHg 98%
    22:00 -5°C° 0 mm 0 mps 574 mmHg 98%
    23:00 -5°C° 0 mm 0 mps 574 mmHg 98%

    Day after tomorrow, 28 March, Tuesday

    Time Temperature Precipitation Wind Pressure Humidity
    00:00 -5°C° 0 mm 0 mps 574 mmHg 98%
    01:00 -6°C° 0 mm 1 mps 574 mmHg 97%
    02:00 -6°C° 0 mm 1 mps 574 mmHg 97%
    03:00 -6°C° 0 mm 1 mps 574 mmHg 97%
    04:00 -6°C° 0 mm 1 mps 574 mmHg 97%
    05:00 -4°C° 0 mm 1 mps 574 mmHg 96%
    06:00 -3°C° 0 mm 1 mps 575 mmHg 94%
    07:00 -3°C° 0 mm 1 mps 576 mmHg 93%
    08:00 0°C° 0 mm 1 mps 577 mmHg 86%
    09:00 +2°C° 0 mm 1 mps 578 mmHg 79%
    10:00 +4°C° 0 mm 1 mps 579 mmHg 72%
    11:00 +4°C° 0 mm 1 mps 579 mmHg 70%
    12:00 +5°C° 0 mm 1 mps 579 mmHg 69%
    13:00 +6°C° 0 mm 1 mps 579 mmHg 67%
    14:00 +5°C° 0 mm 1 mps 579 mmHg 70%
    15:00 +5°C° 0 mm 1 mps 579 mmHg 73%
    16:00 +5°C° 0 mm 1 mps 578 mmHg 75%
    17:00 +3°C° 0 mm 1 mps 577 mmHg 82%
    18:00 +1°C° 0 mm 1 mps 577 mmHg 89%
    19:00 -1°C° 0 mm 1 mps 576 mmHg 95%
    20:00 -2°C° 0 mm 0 mps 576 mmHg 96%
    21:00 -3°C° 0 mm 0 mps 576 mmHg 96%
    22:00 -4°C° 0 mm 0 mps 576 mmHg 97%
    23:00 -4°C° 0 mm 0 mps 576 mmHg 97%

    29 March, Wednesday

    Time Temperature Precipitation Wind Pressure Humidity
    00:00 -3°C° 0 mm 1 mps 576 mmHg 97%
    01:00 -3°C° 0 mm 1 mps 576 mmHg 97%
    02:00 -3°C° 0 mm 1 mps 576 mmHg 97%
    03:00 -3°C° 0 mm 1 mps 576 mmHg 97%
    04:00 -3°C° 0 mm 1 mps 576 mmHg 97%
    05:00 -2°C° 0 mm 1 mps 576 mmHg 97%
    06:00 -2°C° 0 mm 1 mps 577 mmHg 96%
    07:00 -1°C° 0 mm 1 mps 577 mmHg 95%
    08:00 +1°C° 0 mm 1 mps 578 mmHg 89%
    09:00 +2°C° 0 mm 1 mps 579 mmHg 82%
    10:00 +4°C° 0 mm 1 mps 579 mmHg 75%
    11:00 +5°C° 0 mm 1 mps 579 mmHg 72%
    12:00 +5°C° 0 mm 1 mps 579 mmHg 69%
    13:00 +6°C° 0 mm 1 mps 580 mmHg 65%
    14:00 +6°C° 0 mm 1 mps 579 mmHg 67%
    15:00 +6°C° 0 mm 1 mps 579 mmHg 69%
    16:00 +5°C° 0 mm 2 mps 579 mmHg 71%
    17:00 +3°C° 0 mm 1 mps 578 mmHg 79%
    18:00 +1°C° 0 mm 1 mps 577 mmHg 87%
    19:00 -1°C° 0 mm 1 mps 576 mmHg 95%
    20:00 -2°C° 0 mm 1 mps 576 mmHg 95%
    21:00 -2°C° 0 mm 1 mps 576 mmHg 96%
    22:00 -2°C° 0 mm 1 mps 576 mmHg 96%
    23:00 -3°C° 0 mm 1 mps 576 mmHg 96%

    30 March, Thursday

    Time Temperature Precipitation Wind Pressure Humidity
    00:00 -3°C° 0 mm 1 mps 576 mmHg 96%
    01:00 -3°C° 0 mm 1 mps 576 mmHg 95%
    02:00 -3°C° 0 mm 1 mps 576 mmHg 94%
    03:00 -3°C° 0 mm 1 mps 576 mmHg 93%
    04:00 -3°C° 0 mm 1 mps 575 mmHg 92%
    05:00 -3°C° 0 mm 1 mps 576 mmHg 89%
    06:00 -2°C° 0 mm 1 mps 576 mmHg 85%
    07:00 -2°C° 0 mm 1 mps 576 mmHg 81%
    08:00 +1°C° 0 mm 1 mps 578 mmHg 74%
    09:00 +4°C° 0 mm 1 mps 579 mmHg 66%
    10:00 +5°C° 0 mm 0 mps 580 mmHg 58%
    11:00 +7°C° 0 mm 1 mps 580 mmHg 57%
    12:00 +8°C° 0 mm 1 mps 580 mmHg 55%
    13:00 +9°C° 0 mm 1 mps 581 mmHg 53%
    14:00 +9°C° 0 mm 1 mps 580 mmHg 56%
    15:00 +8°C° 0 mm 1 mps 580 mmHg 59%
    16:00 +8°C° 0 mm 1 mps 579 mmHg 62%
    17:00 +5°C° 0 mm 1 mps 578 mmHg 72%
    18:00 +2°C° 0 mm 1 mps 576 mmHg 82%
    19:00 0°C° 0 mm 1 mps 575 mmHg 92%
    20:00 0°C° 0 mm 1 mps 575 mmHg 92%
    21:00 0°C° 0 mm 1 mps 575 mmHg 92%
    22:00 -2°C° 0 mm 2 mps 576 mmHg 92%
    23:00 -2°C° 0 mm 2 mps 576 mmHg 92%

    31 March, Friday

    Time Temperature Precipitation Wind Pressure Humidity
    00:00 -2°C° 0 mm 2 mps 575 mmHg 93%
    01:00 -2°C° 0 mm 2 mps 575 mmHg 93%
    02:00 -2°C° 0 mm 2 mps 575 mmHg 93%
    03:00 -3°C° 0 mm 2 mps 575 mmHg 93%
    04:00 -3°C° 0 mm 2 mps 574 mmHg 93%
    05:00 -3°C° 0 mm 2 mps 575 mmHg 92%
    06:00 -2°C° 0 mm 2 mps 575 mmHg 90%
    07:00 -2°C° 0 mm 2 mps 575 mmHg 89%
    08:00 +1°C° 0 mm 2 mps 575 mmHg 82%
    09:00 +2°C° 0 mm 2 mps 576 mmHg 75%
    10:00 +4°C° 0 mm 2 mps 576 mmHg 68%
    11:00 +5°C° 0 mm 2 mps 576 mmHg 66%
    12:00 +5°C° 0 mm 2 mps 576 mmHg 64%
    13:00 +6°C° 0 mm 2 mps 576 mmHg 62%
    14:00 +5°C° 0.1 mm 2 mps 575 mmHg 65%
    15:00 +5°C° 0.1 mm 2 mps 575 mmHg 69%
    16:00 +4°C° 0.1 mm 2 mps 574 mmHg 72%
    17:00 +3°C° 0.3 mm 2 mps 573 mmHg 78%
    18:00 +1°C° 0.3 mm 2 mps 572 mmHg 84%
    19:00 -1°C° 0.3 mm 2 mps 572 mmHg 90%
    20:00 -1°C° 0.3 mm 2 mps 571 mmHg 90%
    21:00 -2°C° 0.3 mm 2 mps 571 mmHg 91%
    22:00 -2°C° 0.3 mm 2 mps 571 mmHg 91%
    23:00 -3°C° 0.2 mm 2 mps 571 mmHg 91%
    Show more